Location: *
(47.7167°N, 1.7333°W)
Time: 11:29:54
(UTC+00:00)

Cosmos 1758 Rocket - Pass Details

Date: 09 April 2020
Orbit: 602 x 635 km, 82.5° (Epoch: 02 June)

Event Time Altitude Azimuth Distance (km) Brightness Sun altitude
Rises 19:17:22 0° 350° (N) 2,880 7.4 -5.5°
Reaches altitude 10° 19:19:36 10° 349° (N) 1,967 6.6 -5.8°
Maximum altitude 19:23:57 85° 264° (W) 614 3.6 -6.5°
Drops below altitude 10° 19:28:15 10° 174° (S) 1,943 5.9 -7.2°
Sets 19:30:27 0° 174° (S) 2,841 6.7 -7.5°
